When you browse on this site, cookies collect data to enhance your experience and personalize the content and advertising you see.
Visit our Privacy Policy to learn more. By continuing to use the site, you agree to this use of cookies and data.

Hourly Weather San Cristóbal

Today, 3 July, Friday

Time Temperature Precipitation Wind Pressure Humidity
00:00 +21°C° 0 mm 1 mps 671 mmHg 79%
01:00 +20°C° 0 mm 1 mps 671 mmHg 80%
02:00 +20°C° 0 mm 1 mps 671 mmHg 81%
03:00 +20°C° 0 mm 1 mps 670 mmHg 83%
04:00 +20°C° 0 mm 1 mps 670 mmHg 84%
05:00 +21°C° 0 mm 1 mps 671 mmHg 82%
06:00 +21°C° 0 mm 1 mps 671 mmHg 80%
07:00 +22°C° 0 mm 1 mps 672 mmHg 77%
08:00 +24°C° 0.2 mm 1 mps 672 mmHg 75%
09:00 +25°C° 0.2 mm 2 mps 673 mmHg 72%
10:00 +26°C° 0.2 mm 2 mps 673 mmHg 70%
11:00 +26°C° 0.3 mm 2 mps 672 mmHg 72%
12:00 +26°C° 0.3 mm 2 mps 672 mmHg 74%
13:00 +26°C° 0.3 mm 2 mps 671 mmHg 76%
14:00 +26°C° 0.3 mm 1 mps 670 mmHg 73%
15:00 +26°C° 0.3 mm 1 mps 670 mmHg 70%
16:00 +27°C° 0.3 mm 1 mps 670 mmHg 67%
17:00 +25°C° 0.2 mm 1 mps 670 mmHg 73%
18:00 +23°C° 0.2 mm 1 mps 670 mmHg 80%
19:00 +22°C° 0.2 mm 1 mps 670 mmHg 87%
20:00 +21°C° 0.8 mm 1 mps 670 mmHg 90%
21:00 +21°C° 0.8 mm 1 mps 671 mmHg 93%
22:00 +21°C° 0.8 mm 1 mps 671 mmHg 95%
23:00 +21°C° 0.6 mm 1 mps 671 mmHg 95%

Tomorrow, 4 July, Saturday

Time Temperature Precipitation Wind Pressure Humidity
00:00 +21°C° 0.6 mm 1 mps 671 mmHg 95%
01:00 +21°C° 0.6 mm 1 mps 670 mmHg 95%
02:00 +20°C° 0.3 mm 1 mps 670 mmHg 94%
03:00 +20°C° 0.3 mm 1 mps 670 mmHg 93%
04:00 +20°C° 0.3 mm 1 mps 670 mmHg 92%
05:00 +21°C° 0.1 mm 1 mps 671 mmHg 90%
06:00 +21°C° 0.1 mm 1 mps 671 mmHg 88%
07:00 +22°C° 0.1 mm 1 mps 672 mmHg 86%
08:00 +23°C° 0.3 mm 2 mps 672 mmHg 83%
09:00 +23°C° 0.3 mm 2 mps 673 mmHg 80%
10:00 +24°C° 0.3 mm 2 mps 673 mmHg 76%
11:00 +25°C° 0.3 mm 2 mps 673 mmHg 75%
12:00 +25°C° 0.3 mm 2 mps 672 mmHg 73%
13:00 +26°C° 0.3 mm 2 mps 672 mmHg 71%
14:00 +26°C° 0.2 mm 2 mps 672 mmHg 68%
15:00 +27°C° 0.2 mm 2 mps 671 mmHg 65%
16:00 +27°C° 0.2 mm 2 mps 671 mmHg 62%
17:00 +25°C° 0.1 mm 1 mps 671 mmHg 70%
18:00 +23°C° 0.1 mm 1 mps 671 mmHg 78%
19:00 +22°C° 0.1 mm 1 mps 671 mmHg 86%
20:00 +21°C° 0 mm 1 mps 671 mmHg 81%
21:00 +21°C° 0 mm 1 mps 671 mmHg 76%
22:00 +21°C° 0 mm 1 mps 672 mmHg 71%
23:00 +21°C° 0 mm 1 mps 672 mmHg 68%

Day after tomorrow, 5 July, Sunday

Time Temperature Precipitation Wind Pressure Humidity
00:00 +21°C° 0 mm 1 mps 672 mmHg 65%
01:00 +21°C° 0 mm 1 mps 671 mmHg 62%
02:00 +21°C° 0 mm 1 mps 671 mmHg 62%
03:00 +20°C° 0 mm 1 mps 671 mmHg 63%
04:00 +20°C° 0 mm 1 mps 671 mmHg 64%
05:00 +21°C° 0 mm 1 mps 671 mmHg 64%
06:00 +21°C° 0 mm 1 mps 672 mmHg 65%
07:00 +22°C° 0 mm 1 mps 672 mmHg 65%
08:00 +24°C° 0 mm 1 mps 673 mmHg 58%
09:00 +26°C° 0 mm 2 mps 673 mmHg 50%
10:00 +28°C° 0 mm 2 mps 674 mmHg 43%
11:00 +28°C° 0 mm 2 mps 673 mmHg 44%
12:00 +29°C° 0 mm 3 mps 673 mmHg 44%
13:00 +29°C° 0 mm 3 mps 672 mmHg 45%
14:00 +28°C° 0.1 mm 2 mps 672 mmHg 50%
15:00 +28°C° 0.1 mm 2 mps 671 mmHg 54%
16:00 +27°C° 0.1 mm 2 mps 671 mmHg 59%
17:00 +25°C° 0.1 mm 1 mps 671 mmHg 69%
18:00 +23°C° 0.1 mm 1 mps 671 mmHg 79%
19:00 +21°C° 0.1 mm 1 mps 671 mmHg 89%
20:00 +21°C° 0 mm 1 mps 671 mmHg 87%
21:00 +20°C° 0 mm 1 mps 671 mmHg 85%
22:00 +20°C° 0 mm 1 mps 672 mmHg 83%
23:00 +20°C° 0 mm 1 mps 672 mmHg 79%

6 July, Monday

Time Temperature Precipitation Wind Pressure Humidity
00:00 +20°C° 0 mm 1 mps 671 mmHg 75%
01:00 +20°C° 0 mm 1 mps 671 mmHg 71%
02:00 +20°C° 0 mm 1 mps 671 mmHg 71%
03:00 +20°C° 0 mm 1 mps 671 mmHg 71%
04:00 +20°C° 0 mm 1 mps 671 mmHg 72%
05:00 +20°C° 0.1 mm 1 mps 671 mmHg 75%
06:00 +21°C° 0.1 mm 1 mps 672 mmHg 79%
07:00 +21°C° 0.1 mm 1 mps 672 mmHg 82%
08:00 +21°C° 0.2 mm 1 mps 672 mmHg 81%
09:00 +22°C° 0.2 mm 1 mps 673 mmHg 79%
10:00 +23°C° 0.2 mm 1 mps 673 mmHg 78%
11:00 +23°C° 0.5 mm 1 mps 672 mmHg 80%
12:00 +22°C° 0.5 mm 1 mps 672 mmHg 82%
13:00 +22°C° 0.5 mm 1 mps 672 mmHg 84%
14:00 +23°C° 0.2 mm 2 mps 672 mmHg 82%
15:00 +23°C° 0.2 mm 2 mps 671 mmHg 80%
16:00 +24°C° 0.2 mm 2 mps 671 mmHg 78%
17:00 +23°C° 0.4 mm 2 mps 671 mmHg 83%
18:00 +21°C° 0.4 mm 1 mps 671 mmHg 89%
19:00 +20°C° 0.4 mm 1 mps 671 mmHg 95%
20:00 +20°C° 0 mm 1 mps 672 mmHg 93%
21:00 +20°C° 0 mm 1 mps 672 mmHg 92%
22:00 +20°C° 0 mm 1 mps 672 mmHg 91%
23:00 +20°C° 0 mm 1 mps 672 mmHg 89%

7 July, Tuesday

Time Temperature Precipitation Wind Pressure Humidity
00:00 +20°C° 0 mm 1 mps 672 mmHg 88%
01:00 +19°C° 0 mm 0 mps 671 mmHg 86%
02:00 +19°C° 0 mm 0 mps 671 mmHg 85%
03:00 +19°C° 0 mm 0 mps 671 mmHg 84%
04:00 +21°C° 0 mm 1 mps 671 mmHg 83%
05:00 +21°C° 0 mm 1 mps 671 mmHg 84%
06:00 +21°C° 0 mm 1 mps 672 mmHg 85%
07:00 +21°C° 0 mm 1 mps 672 mmHg 86%
08:00 +21°C° 0.2 mm 1 mps 672 mmHg 86%
09:00 +22°C° 0.2 mm 1 mps 673 mmHg 86%
10:00 +22°C° 0.2 mm 1 mps 673 mmHg 85%
11:00 +22°C° 1.2 mm 1 mps 673 mmHg 87%
12:00 +21°C° 1.2 mm 2 mps 672 mmHg 89%
13:00 +20°C° 1.2 mm 2 mps 672 mmHg 91%
14:00 +21°C° 0.5 mm 1 mps 671 mmHg 91%
15:00 +22°C° 0.5 mm 1 mps 671 mmHg 90%
16:00 +22°C° 0.5 mm 1 mps 670 mmHg 90%
17:00 +21°C° 0 mm 1 mps 670 mmHg 89%
18:00 +21°C° 0 mm 1 mps 671 mmHg 88%
19:00 +20°C° 0 mm 1 mps 671 mmHg 87%
20:00 +20°C° 0 mm 1 mps 671 mmHg 85%
21:00 +20°C° 0 mm 1 mps 672 mmHg 82%
22:00 +20°C° 0 mm 1 mps 672 mmHg 79%
23:00 +20°C° 0 mm 1 mps 672 mmHg 78%

8 July, Wednesday

Time Temperature Precipitation Wind Pressure Humidity
00:00 +20°C° 0 mm 1 mps 672 mmHg 76%
01:00 +20°C° 0 mm 1 mps 672 mmHg 75%
02:00 +20°C° 0 mm 1 mps 671 mmHg 76%
03:00 +20°C° 0 mm 1 mps 671 mmHg 77%
04:00 +20°C° 0 mm 1 mps 671 mmHg 78%
05:00 +20°C° 0 mm 1 mps 671 mmHg 76%
06:00 +21°C° 0 mm 1 mps 672 mmHg 74%
07:00 +22°C° 0 mm 1 mps 672 mmHg 72%
08:00 +23°C° 0.1 mm 2 mps 673 mmHg 69%
09:00 +25°C° 0.1 mm 2 mps 673 mmHg 66%
10:00 +26°C° 0.1 mm 2 mps 673 mmHg 64%
11:00 +27°C° 0.3 mm 2 mps 673 mmHg 62%
12:00 +27°C° 0.3 mm 2 mps 673 mmHg 60%
13:00 +28°C° 0.3 mm 2 mps 672 mmHg 57%
14:00 +28°C° 0.2 mm 2 mps 672 mmHg 59%
15:00 +27°C° 0.2 mm 2 mps 671 mmHg 61%
16:00 +27°C° 0.2 mm 2 mps 671 mmHg 63%
17:00 +25°C° 0.1 mm 1 mps 671 mmHg 72%
18:00 +23°C° 0.1 mm 1 mps 671 mmHg 81%
19:00 +21°C° 0.1 mm 1 mps 671 mmHg 90%
20:00 +21°C° 0 mm 1 mps 671 mmHg 88%
21:00 +20°C° 0 mm 1 mps 671 mmHg 87%
22:00 +20°C° 0 mm 1 mps 672 mmHg 85%
23:00 +20°C° 0.3 mm 1 mps 672 mmHg 86%
Show more